Location: Nairn
(57.5833°N, 3.8667°W)
Time: 02:29:58
(UTC+00:00)

Cosmos 2266 Rocket - Pass Details

Date: 07 August 2020
Orbit: 934 x 1008 km, 82.9° (Epoch: 19 September)

Event Time Altitude Azimuth Distance (km) Brightness Sun altitude
Rises 02:26:45 0° 347° (NNW) 3,753 7.8 -11.7°
Reaches altitude 10° 02:29:19 10° 349° (NNW) 2,795 7.1 -11.5°
Maximum altitude 02:35:46 82° 77° (ENE) 1,015 4.2 -11.0°
Drops below altitude 10° 02:42:05 10° 166° (SSE) 2,738 6.0 -10.6°
Sets 02:44:34 0° 167° (SSE) 3,672 6.6 -10.4°
